Regional Weather Roundup
Issued by NWS Midland/Odessa, TX

Skip options and go directly to product.
Home | Oldest Version | Previous Version | Current Version | All | Graphics & Text | Save Text | Print | Product List | Glossary On

Skip product version selection by date and time.   
495
ASUS44 KMAF 281610
RWRMAF
MIDLAND AREA WEATHER ROUNDUP
NATIONAL WEATHER SERVICE MIDLAND TX
1100 AM CDT SAT MAY 28 2016

...IN SOUTHWEST TEXAS AND SOUTHEAST NEW MEXICO...

CITY           SKY/WX    TMP DP  RH WIND       PRES   REMARKS
ALPINE         SUNNY     80  15   9 E5        30.12S
ANDREWS        FAIR      76  32  20 W3        30.02F
ARTESIA        SUNNY     70  37  30 VRB5      30.05S
BIG SPRING     SUNNY     75  44  32 CALM      30.01F
CARLSBAD       SUNNY     74  39  28 N16       30.02S
DRYDEN           N/A     74  64  71 E9        29.97S
FORT STOCKTON  NOT AVBL
GUAD PASS      NOT AVBL
HOBBS          SUNNY     73  39  29 NE10      30.05S
MARFA          NOT AVBL
MIDLAND AIRPK  SUNNY     86  19   8 SW3       29.99F
MIDLAND INTL   SUNNY     87  20   8 SW6       29.98S
ODESSA         SUNNY     84  19   9 CALM      30.00S
PECOS          SUNNY     80  22  11 N6        29.98S
PRESIDIO       FAIR      81  20  10 SW5       29.97S
SEMINOLE       SUNNY     74  42  31 E7        30.04S
SNYDER           N/A     73  50  43 CALM      30.00S
WINK           SUNNY     84  21  10 S7        29.97S
$$
...OTHER STATIONS IN TEXAS...

CITY           SKY/WX    TMP DP  RH WIND       PRES   REMARKS
ABILENE        SUNNY     82  67  60 SW12      29.97S
AMARILLO       SUNNY     69  46  43 NE8       30.05S
AUSTIN         CLOUDY    77  74  90 S9        29.96R FOG
BROWNSVILLE    CLOUDY    84  76  76 SE16      29.91R
CORPUS CHRISTI PTSUNNY   84  76  76 SE17      29.93R
DALLAS FTW     CLOUDY    73  65  75 S6        29.96R
DEL RIO        CLOUDY    79  73  82 SE12      29.92F
EL PASO        SUNNY     76  18  11 CALM      30.02S
HOUSTON INT    SUNNY     80  70  71 VRB7      29.97R
LUBBOCK        SUNNY     71  44  37 E9        30.04R
SAN ANGELO     SUNNY     81  67  62 S10       29.96S
SAN ANTONIO    PTSUNNY   81  74  79 S10G21    29.96S
WACO           PTSUNNY   80  70  71 SW12      29.95S
WICHITA FALLS  NOT AVBL
$$
...OTHER LOCATIONS IN NEW MEXICO...

CITY           SKY/WX    TMP DP  RH WIND       PRES   REMARKS
ALAMAGORDO     SUNNY     75  23  14 S13       30.04F
ALBUQUERQUE    MOSUNNY   66  31  27 VRB3      30.11R
CANNON AFB     SUNNY     70  40  33 E7        30.07S
CLOVIS         SUNNY     70  41  35 E7        30.08S
HOLLOMAN AFB   SUNNY     74  19  12 S9        30.03S
ROSWELL        SUNNY     70  40  33 CALM      30.06R
RUIDOSO          N/A     63  28  27 SE8       30.20S
SANTA FE       SUNNY     62  29  28 CALM      30.14S
TRUTH OR CONSE SUNNY     73  22  14 VRB3      30.06S
TUCUMCARI      SUNNY     69  40  34 SE7       30.06S
$$

USA.gov is the U.S. government's official web portal to all federal, state and local government web resources and services.